RH
74 66 78 49 41 41 42 36 36 37 38 33 31 32 34 43 42 33 33 37 40 36 39 31 31 34 33 38 39 40 41 43 44 42 40 38 36 38 43 42 38 30 33
58 60 68 85 71 62 60 49 39 35 36 40 36 34 33 34 35 36 39 44 35 42 35 35 37 41 40 42 42 44 44 44 44 44 41 41 38 39 45 48 42 34 31
60 56 50 56 87 75 62 59 48 41 34 34 44 38 36 34 38 40 43 44 46 44 38 40 46 48 48 48 51 47 46 48 52 47 41 40 39 39 40 47 48 44 43
50 57 50 44 51 90 77 67 57 45 37 35 36 45 43 39 40 42 42 43 47 46 44 51 55 51 48 51 54 53 52 53 52 43 39 40 39 40 42 44 50 49 53
29 45 56 43 47 53 72 81 69 59 44 39 38 39 47 44 42 43 43 41 45 60 63 64 69 62 62 57 58 60 61 56 46 39 38 37 39 41 42 46 53 52 47
23 28 40 48 41 48 48 52 81 76 57 49 46 43 45 53 48 47 49 43 44 43 57 68 75 71 65 61 65 58 56 50 49 41 40 36 34 39 46 45 47 51 50
14 16 24 33 35 40 43 44 54 78 70 62 51 55 48 51 60 50 56 49 46 49 49 53 71 76 67 63 71 68 62 54 55 64 54 46 42 37 41 47 48 51 52
44 15 13 16 21 24 37 37 40 57 73 73 64 50 56 53 63 66 63 55 57 56 57 59 55 62 65 59 68 71 69 64 58 76 70 66 59 47 37 39 47 50 57
78 100 23 16 16 16 22 27 33 49 60 65 64 57 56 62 57 64 76 70 61 69 67 66 62 62 60 55 62 70 67 67 78 74 68 75 78 63 49 44 44 50 55
79 75 98 69 21 17 16 17 36 53 63 66 67 59 62 74 67 68 70 75 77 64 73 78 72 71 72 69 59 59 66 58 64 60 79 97 84 70 55 44 47 41 45
51 82 78 96 58 27 17 16 17 43 43 64 69 75 73 72 80 69 68 71 79 79 67 81 87 70 69 79 75 64 59 63 60 63 70 100 99 85 64 63 50 46 40
31 40 64 59 35 27 24 21 15 16 27 53 75 78 88 79 72 77 78 67 78 83 87 70 70 70 83 75 64 87 87 75 85 84 82 98 100 85 69 58 70 50 42
38 32 28 46 39 29 28 24 19 14 18 24 39 59 100 92 85 84 91 86 73 72 92 88 65 57 96 98 70 55 74 96 100 100 100 100 100 100 96 65 60 52 41
40 35 33 32 24 22 22 26 26 18 16 20 24 31 52 100 100 93 100 97 81 74 74 92 82 83 90 90 94 73 97 92 76 75 82 77 100 100 99 100 72 63 44
38 36 32 29 27 23 24 25 25 23 27 30 31 27 38 63 99 100 100 100 99 86 80 79 85 83 90 79 72 69 87 91 99 73 90 99 100 100 100 100 100 86 55
25 34 33 30 28 27 20 24 18 30 28 28 30 43 36 35 45 69 99 100 100 88 98 88 79 83 93 95 97 61 64 80 98 100 100 100 100 100 100 100 100 96 82
21 22 24 30 30 28 23 27 26 18 16 18 24 40 39 52 48 58 78 100 100 88 100 99 90 84 89 88 95 99 93 95 100 100 100 100 97 100 100 100 80 89 68
25 25 22 22 27 31 33 30 25 24 16 18 24 26 36 47 100 73 66 84 100 100 100 100 100 100 100 100 97 93 100 100 100 100 100 95 100 100 100 98 90 85 57
21 22 22 18 22 25 28 33 26 26 18 17 20 46 38 27 54 65 62 78 87 100 100 100 100 100 100 100 100 100 100 100 100 100 100 100 100 100 100 98 87 64 48
16 19 17 19 19 24 27 26 28 29 20 14 15 22 32 27 36 100 67 63 75 100 100 100 100 100 100 100 100 100 99 100 100 100 100 100 100 100 74 51 42 55 49
12 11 12 12 16 17 20 22 22 24 26 21 19 14 18 25 33 100 93 90 100 100 100 92 99 100 100 100 100 100 93 100 100 100 98 84 98 90 47 50 47 50 52
9 11 13 13 13 14 18 23 19 22 20 22 22 15 21 23 39 79 100 97 100 100 100 96 100 100 100 99 100 100 100 100 100 100 100 100 96 65 52 55 57 54 56
7 8 10 12 13 14 18 16 17 19 22 20 24 13 22 25 82 100 100 98 85 100 100 100 100 100 100 100 100 95 100 100 100 100 100 83 60 54 59 47 48 62 61
6 7 8 10 12 16 14 18 17 17 20 19 23 13 25 33 55 100 100 100 100 100 100 100 100 100 100 100 100 100 100 100 87 98 90 80 60 49 46 62 54 70 67
5 5 6 7 10 12 13 14 15 18 18 19 22 17 32 32 63 100 100 100 100 100 100 100 100 100 100 100 100 100 100 92 100 94 64 73 74 65 78 81 72 86 78
4 5 6 7 8 9 10 11 14 16 16 17 17 25 32 30 44 100 100 100 100 100 100 100 100 100 100 100 100 86 82 95 96 84 100 91 69 100 90 90 100 94 76
Wind_Speed
48 47 45 44 42 40 37 36 34 32 30 29 26 25 24 23 21 20 18 16 18 15 14 15 15 14 14 14 14 13 14 16 18 20 21 22 22 21 20 19 19 16 9
54 50 48 46 45 43 40 38 37 33 32 31 29 28 26 25 22 21 19 15 15 14 14 15 15 15 15 14 14 15 17 18 20 22 23 23 22 21 19 17 16 15 10
60 56 54 49 48 47 43 41 40 36 34 34 32 31 29 28 24 22 20 17 16 15 16 17 16 17 17 17 18 19 20 21 24 26 23 23 23 23 20 18 16 13 13
66 64 61 56 51 49 49 46 43 41 37 36 36 35 33 32 27 25 22 20 16 17 17 18 18 20 19 20 21 22 23 24 24 25 23 23 23 22 22 21 18 15 16
65 66 67 62 57 55 54 52 50 46 43 40 40 38 36 36 32 28 26 25 23 18 19 20 20 21 22 22 23 23 23 24 25 22 20 19 21 23 23 22 20 19 18
57 61 65 68 63 60 58 55 53 51 48 45 42 41 38 38 34 29 27 27 26 25 24 23 22 22 23 22 22 23 22 23 22 19 18 19 20 23 24 24 24 23 22
46 54 62 67 67 66 64 61 58 56 54 49 47 44 43 40 38 34 31 29 28 28 26 26 26 23 23 23 24 25 24 24 23 20 21 20 22 23 24 24 26 27 27
41 45 53 61 65 64 65 65 64 61 58 54 52 48 45 44 42 39 38 36 31 29 28 27 28 28 25 24 25 26 25 25 25 22 23 25 26 26 26 24 26 29 30
34 34 45 56 59 63 65 66 67 66 63 60 57 54 52 48 47 45 41 40 36 33 31 31 29 28 27 27 26 27 26 24 22 23 27 26 27 27 27 28 29 28 30
34 32 35 42 53 58 62 64 67 69 67 64 61 59 56 54 51 50 46 44 42 39 35 33 31 29 28 28 28 27 28 25 26 28 30 30 29 28 29 31 33 32 32
39 41 40 37 47 49 55 59 67 69 71 69 66 64 60 60 58 55 51 48 46 44 43 38 35 32 30 29 29 26 25 28 29 33 33 30 30 30 32 33 34 34 35
49 47 46 43 42 45 52 54 56 65 70 72 71 70 65 64 64 62 56 54 51 48 47 45 40 38 35 33 32 31 26 29 32 34 36 33 31 33 34 35 35 38 39
52 49 49 50 50 47 51 56 58 59 65 71 72 72 70 69 67 65 63 59 55 52 49 47 45 42 41 39 34 35 34 34 36 37 38 40 37 36 37 35 38 39 39
56 52 49 53 49 49 50 56 59 55 56 61 71 71 73 73 71 68 66 65 61 56 53 52 49 45 43 42 41 42 43 41 39 41 42 42 38 38 39 40 40 39 38
67 65 61 58 56 54 46 47 47 54 56 59 63 68 73 73 72 70 69 68 66 61 58 55 51 47 47 46 46 47 45 43 44 39 42 43 45 44 43 45 44 43 41
76 73 67 65 59 55 50 51 49 52 55 62 65 66 67 72 74 73 72 71 70 66 61 59 55 52 52 51 49 45 46 47 48 51 53 52 53 54 53 51 50 45 46
73 71 70 73 71 66 62 61 57 56 54 56 64 63 66 64 67 71 74 74 71 67 65 62 59 56 54 55 52 51 49 52 56 57 58 59 54 56 56 59 54 52 47
74 73 73 72 75 73 70 67 63 64 59 54 55 61 60 62 47 71 69 71 71 69 67 62 61 58 58 58 57 57 57 59 61 63 59 56 58 61 59 61 61 59 56
76 75 72 72 76 77 74 72 70 67 63 60 58 64 63 64 69 68 73 73 71 67 66 64 63 63 59 62 62 58 59 61 65 68 63 61 54 60 64 64 66 63 61
79 77 75 73 75 78 76 75 75 73 64 66 67 70 66 70 64 50 75 69 69 68 66 58 58 57 57 61 57 63 61 62 60 64 63 58 56 61 64 65 67 66 65
78 77 78 78 79 81 77 79 80 78 74 70 72 69 61 71 68 68 71 66 61 64 68 66 58 57 56 58 53 61 55 61 61 63 69 65 61 66 68 72 71 70 69
74 75 77 77 77 78 75 80 81 84 77 74 78 66 60 70 68 67 67 65 67 67 63 64 64 60 67 60 55 55 55 64 68 67 66 65 67 70 69 69 70 62 60
73 76 80 78 78 76 80 80 79 83 83 80 75 69 57 70 66 60 67 66 65 65 62 61 65 72 65 63 63 61 56 68 67 65 67 66 66 64 63 64 60 61 59
73 79 81 81 85 88 84 85 82 83 82 80 76 64 59 74 75 80 76 71 65 57 57 56 59 62 63 61 62 63 65 69 68 69 71 68 66 64 67 65 59 63 61
72 77 79 78 82 87 90 88 85 85 81 76 74 63 60 74 76 75 83 73 66 62 63 65 66 62 61 63 64 68 73 74 69 70 70 69 67 70 68 65 64 64 68
63 66 70 74 77 77 78 79 80 80 74 69 61 57 66 73 77 82 82 78 85 69 64 61 61 72 70 71 73 74 74 77 76 74 73 70 66 66 67 72 74 70 72
Wind_Direction
238 235 236 237 238 240 238 240 240 239 240 240 239 242 243 243 247 258 262 269 273 272 275 278 287 294 300 307 313 319 323 327 325 324 321 322 326 327 335 339 338 333 314
242 240 237 239 240 243 240 240 241 241 242 242 241 241 242 245 249 253 261 269 259 259 259 268 278 286 292 302 307 311 314 320 323 323 318 319 319 322 328 335 336 339 318
243 244 245 245 245 245 244 245 246 241 243 243 245 247 244 245 245 250 257 258 256 257 251 259 268 277 287 295 300 302 305 310 317 321 315 316 318 321 323 323 326 327 325
242 243 246 246 245 244 245 247 247 249 247 247 245 248 250 250 245 249 253 254 257 253 251 257 265 274 283 289 293 299 302 305 312 317 317 317 319 319 321 320 318 318 306
240 241 244 245 244 245 246 249 249 248 249 251 248 245 248 251 249 249 250 251 249 250 255 261 267 274 282 286 292 297 303 307 312 311 314 318 321 321 319 318 314 310 307
242 242 243 245 244 245 246 248 247 247 247 250 249 247 245 247 249 246 249 251 253 255 255 263 267 274 279 282 284 289 297 303 307 305 309 318 319 320 319 316 312 306 303
244 245 243 244 246 244 247 247 248 247 248 249 253 247 249 244 249 252 253 253 252 255 258 261 263 266 270 277 278 284 291 295 295 298 306 311 313 313 315 314 314 308 305
251 246 248 248 247 245 243 247 248 248 246 248 250 250 246 245 245 252 257 257 253 252 257 261 265 267 269 274 275 279 284 290 287 289 299 306 308 310 314 309 310 312 310
236 250 247 249 249 245 242 244 246 246 247 248 248 250 248 247 247 249 252 255 254 255 255 259 263 270 275 276 276 279 282 284 290 291 299 306 309 304 309 312 308 308 307
233 236 248 251 246 247 246 242 240 243 245 247 248 252 250 249 248 249 250 253 256 258 256 256 261 268 272 279 276 282 282 285 289 291 294 300 300 305 307 309 310 310 311
234 237 234 242 250 246 247 246 242 241 245 246 247 249 251 250 251 249 250 251 253 258 260 256 258 266 269 273 278 280 284 289 293 294 293 294 306 303 302 307 308 311 315
242 237 232 236 246 255 250 250 245 243 242 244 244 246 247 250 253 253 252 251 252 253 257 259 258 263 268 269 273 279 280 285 289 292 292 295 299 298 300 301 301 302 310
244 242 244 238 252 254 251 257 249 244 244 244 245 245 246 248 251 251 252 252 252 255 255 257 260 262 269 269 275 272 276 282 288 289 291 295 299 303 306 304 299 303 308
244 245 252 256 258 263 265 253 247 246 244 245 245 245 243 244 247 249 251 252 256 256 258 255 258 262 265 268 271 274 279 280 285 286 286 288 295 298 299 305 304 302 303
243 247 250 254 261 265 266 243 248 248 245 248 251 246 244 241 243 247 249 251 254 257 259 257 258 263 266 267 271 273 276 278 279 283 287 289 294 297 301 302 302 298 296
246 247 250 253 257 261 263 260 267 246 253 258 258 252 249 247 245 246 246 249 254 255 258 259 260 263 266 269 273 273 274 277 281 283 288 288 291 293 296 298 298 299 293
245 246 250 253 259 260 263 264 266 259 262 263 255 252 252 249 243 244 247 248 250 253 257 261 264 265 267 272 271 273 275 281 282 286 286 287 289 293 294 294 290 293 295
241 244 245 248 253 255 257 261 263 265 270 265 251 246 251 246 251 248 246 247 247 251 254 256 261 267 271 272 271 275 277 281 285 285 289 289 288 294 292 290 288 292 296
240 240 241 243 245 250 254 259 260 262 264 266 254 248 245 251 245 245 246 246 245 247 251 254 258 264 269 271 272 274 279 281 283 282 286 288 286 290 288 290 287 288 291
242 242 242 242 242 247 250 254 259 261 261 263 262 252 253 253 246 237 246 248 248 246 249 251 256 259 265 268 271 270 275 277 279 285 282 279 283 285 279 283 289 290 291
247 248 246 245 245 248 248 252 255 260 262 265 265 262 251 248 245 240 244 246 251 251 253 254 253 257 267 266 265 267 270 271 274 275 272 274 271 275 280 288 290 292 293
250 250 250 249 249 249 248 250 254 258 261 264 265 265 255 247 241 240 235 237 242 249 252 252 256 262 264 258 257 260 272 275 269 273 276 276 274 284 290 293 297 296 295
252 253 252 252 251 253 250 252 253 256 259 262 264 264 253 246 232 235 235 238 241 248 253 255 254 256 258 256 256 260 265 266 270 278 277 281 289 290 292 294 295 297 295
254 255 252 250 249 249 252 253 254 255 258 259 260 263 246 238 233 231 233 237 241 247 247 252 252 254 255 260 264 269 269 268 276 278 281 290 290 290 295 292 294 292 291
245 245 245 245 246 247 248 252 254 257 258 259 258 257 239 234 235 229 237 240 244 245 249 253 253 256 259 262 262 263 264 267 272 277 285 289 289 289 287 288 289 288 293
238 239 240 240 241 243 245 247 250 253 255 253 252 242 236 235 231 231 236 242 243 245 246 255 262 259 258 257 264 262 269 279 281 284 285 289 290 288 285 286 286 286 292